When you browse on this site, cookies collect data to enhance your experience and personalize the content and advertising you see.
Visit our Privacy Policy to learn more. By continuing to use the site, you agree to this use of cookies and data.
  • In Latvia
  • List of Countries
  • For 7 days
  • Water Temperature
  • Satellite Maps
  • Weather Map
  • Weather Widgets
  • user-avatar
    Login

    Hourly Weather Mayrhofen

    Today, 19 January, Saturday

    Time Temperature Precipitation Wind Pressure Humidity
    00:00 -16°C° 0 mm 2 mps 610 mmHg 72%
    01:00 -14°C° 0 mm 2 mps 610 mmHg 69%
    02:00 -14°C° 0 mm 2 mps 610 mmHg 72%
    03:00 -14°C° 0 mm 2 mps 610 mmHg 75%
    04:00 -14°C° 0 mm 2 mps 610 mmHg 78%
    05:00 -14°C° 0 mm 2 mps 610 mmHg 79%
    06:00 -14°C° 0 mm 2 mps 610 mmHg 81%
    07:00 -14°C° 0 mm 2 mps 610 mmHg 82%
    08:00 -13°C° 0 mm 2 mps 610 mmHg 82%
    09:00 -10°C° 0 mm 2 mps 611 mmHg 83%
    10:00 -9°C° 0 mm 2 mps 611 mmHg 83%
    11:00 -8°C° 0 mm 2 mps 611 mmHg 81%
    12:00 -6°C° 0 mm 1 mps 611 mmHg 80%
    13:00 -3°C° 0 mm 1 mps 611 mmHg 78%
    14:00 -4°C° 0 mm 1 mps 611 mmHg 80%
    15:00 -6°C° 0 mm 1 mps 611 mmHg 82%
    16:00 -6°C° 0 mm 1 mps 610 mmHg 85%
    17:00 -7°C° 0 mm 1 mps 610 mmHg 85%
    18:00 -9°C° 0 mm 1 mps 609 mmHg 85%
    19:00 -10°C° 0 mm 1 mps 609 mmHg 85%
    20:00 -12°C° 0 mm 2 mps 608 mmHg 85%
    21:00 -13°C° 0 mm 2 mps 608 mmHg 84%
    22:00 -13°C° 0 mm 2 mps 608 mmHg 83%
    23:00 -13°C° 0 mm 2 mps 608 mmHg 82%

    Tomorrow, 20 January, Sunday

    Time Temperature Precipitation Wind Pressure Humidity
    00:00 -14°C° 0 mm 2 mps 608 mmHg 82%
    01:00 -14°C° 0 mm 2 mps 608 mmHg 81%
    02:00 -15°C° 0 mm 2 mps 608 mmHg 81%
    03:00 -13°C° 0 mm 1 mps 607 mmHg 81%
    04:00 -13°C° 0 mm 1 mps 607 mmHg 81%
    05:00 -13°C° 0 mm 1 mps 607 mmHg 81%
    06:00 -13°C° 0 mm 1 mps 607 mmHg 81%
    07:00 -14°C° 0 mm 1 mps 607 mmHg 81%
    08:00 -12°C° 0 mm 1 mps 608 mmHg 81%
    09:00 -10°C° 0 mm 1 mps 609 mmHg 81%
    10:00 -8°C° 0 mm 1 mps 609 mmHg 80%
    11:00 -7°C° 0 mm 1 mps 610 mmHg 75%
    12:00 -6°C° 0 mm 1 mps 610 mmHg 70%
    13:00 -4°C° 0 mm 1 mps 610 mmHg 65%
    14:00 -4°C° 0 mm 1 mps 610 mmHg 71%
    15:00 -6°C° 0 mm 1 mps 610 mmHg 77%
    16:00 -7°C° 0 mm 1 mps 610 mmHg 84%
    17:00 -8°C° 0 mm 1 mps 610 mmHg 85%
    18:00 -9°C° 0 mm 1 mps 609 mmHg 86%
    19:00 -11°C° 0 mm 1 mps 609 mmHg 87%
    20:00 -11°C° 0 mm 1 mps 610 mmHg 85%
    21:00 -11°C° 0 mm 1 mps 610 mmHg 83%
    22:00 -11°C° 0 mm 1 mps 610 mmHg 81%
    23:00 -11°C° 0 mm 1 mps 610 mmHg 80%

    Day after tomorrow, 21 January, Monday

    Time Temperature Precipitation Wind Pressure Humidity
    00:00 -11°C° 0 mm 1 mps 610 mmHg 79%
    01:00 -12°C° 0 mm 1 mps 611 mmHg 78%
    02:00 -12°C° 0 mm 1 mps 610 mmHg 79%
    03:00 -12°C° 0 mm 1 mps 610 mmHg 80%
    04:00 -12°C° 0 mm 1 mps 610 mmHg 80%
    05:00 -13°C° 0 mm 1 mps 610 mmHg 82%
    06:00 -13°C° 0 mm 1 mps 610 mmHg 84%
    07:00 -13°C° 0 mm 1 mps 610 mmHg 86%
    08:00 -12°C° 0 mm 1 mps 611 mmHg 86%
    09:00 -10°C° 0 mm 1 mps 612 mmHg 87%
    10:00 -8°C° 0 mm 1 mps 613 mmHg 88%
    11:00 -7°C° 0 mm 1 mps 613 mmHg 87%
    12:00 -6°C° 0 mm 1 mps 613 mmHg 86%
    13:00 -4°C° 0 mm 1 mps 613 mmHg 84%
    14:00 -6°C° 0.1 mm 1 mps 613 mmHg 86%
    15:00 -7°C° 0.1 mm 2 mps 613 mmHg 88%
    16:00 -7°C° 0.1 mm 2 mps 613 mmHg 90%
    17:00 -8°C° 0 mm 1 mps 612 mmHg 92%
    18:00 -10°C° 0 mm 1 mps 612 mmHg 94%
    19:00 -11°C° 0 mm 1 mps 611 mmHg 95%
    20:00 -12°C° 0 mm 1 mps 611 mmHg 94%
    21:00 -13°C° 0 mm 1 mps 610 mmHg 93%
    22:00 -14°C° 0 mm 1 mps 610 mmHg 91%
    23:00 -14°C° 0 mm 1 mps 610 mmHg 89%

    22 January, Tuesday

    Time Temperature Precipitation Wind Pressure Humidity
    00:00 -15°C° 0 mm 1 mps 609 mmHg 86%
    01:00 -15°C° 0 mm 1 mps 609 mmHg 84%
    02:00 -15°C° 0 mm 1 mps 609 mmHg 81%
    03:00 -15°C° 0 mm 1 mps 608 mmHg 78%
    04:00 -15°C° 0 mm 1 mps 608 mmHg 75%
    05:00 -15°C° 0 mm 1 mps 607 mmHg 72%
    06:00 -17°C° 0 mm 2 mps 607 mmHg 68%
    07:00 -17°C° 0 mm 2 mps 607 mmHg 65%
    08:00 -15°C° 0 mm 2 mps 607 mmHg 66%
    09:00 -14°C° 0 mm 2 mps 607 mmHg 66%
    10:00 -12°C° 0 mm 2 mps 608 mmHg 67%
    11:00 -9°C° 0 mm 2 mps 607 mmHg 66%
    12:00 -7°C° 0 mm 2 mps 607 mmHg 65%
    13:00 -6°C° 0 mm 2 mps 607 mmHg 64%
    14:00 -7°C° 0 mm 2 mps 606 mmHg 68%
    15:00 -8°C° 0 mm 2 mps 605 mmHg 71%
    16:00 -8°C° 0 mm 2 mps 604 mmHg 75%
    17:00 -12°C° 0 mm 2 mps 603 mmHg 74%
    18:00 -14°C° 0 mm 2 mps 602 mmHg 73%
    19:00 -17°C° 0 mm 3 mps 601 mmHg 72%
    20:00 -17°C° 0 mm 3 mps 600 mmHg 73%
    21:00 -18°C° 0 mm 3 mps 600 mmHg 74%
    22:00 -18°C° 0 mm 3 mps 600 mmHg 74%
    23:00 -18°C° 0 mm 3 mps 599 mmHg 76%

    23 January, Wednesday

    Time Temperature Precipitation Wind Pressure Humidity
    00:00 -18°C° 0 mm 3 mps 599 mmHg 78%
    01:00 -18°C° 0 mm 3 mps 599 mmHg 81%
    02:00 -18°C° 0 mm 2 mps 598 mmHg 81%
    03:00 -18°C° 0 mm 2 mps 598 mmHg 82%
    04:00 -18°C° 0 mm 2 mps 597 mmHg 82%
    05:00 -18°C° 0 mm 2 mps 597 mmHg 81%
    06:00 -18°C° 0 mm 2 mps 597 mmHg 80%
    07:00 -17°C° 0 mm 1 mps 597 mmHg 79%
    08:00 -15°C° 0 mm 1 mps 598 mmHg 78%
    09:00 -13°C° 0 mm 1 mps 599 mmHg 77%
    10:00 -11°C° 0 mm 1 mps 600 mmHg 76%
    11:00 -9°C° 0 mm 1 mps 600 mmHg 74%
    12:00 -8°C° 0 mm 1 mps 600 mmHg 71%
    13:00 -6°C° 0 mm 1 mps 601 mmHg 69%
    14:00 -7°C° 0 mm 1 mps 600 mmHg 74%
    15:00 -8°C° 0 mm 1 mps 600 mmHg 78%
    16:00 -8°C° 0 mm 0 mps 600 mmHg 83%
    17:00 -10°C° 0 mm 1 mps 599 mmHg 85%
    18:00 -12°C° 0 mm 1 mps 599 mmHg 88%
    19:00 -14°C° 0 mm 1 mps 599 mmHg 90%
    20:00 -14°C° 0 mm 1 mps 599 mmHg 88%
    21:00 -14°C° 0 mm 1 mps 600 mmHg 86%
    22:00 -13°C° 0 mm 1 mps 600 mmHg 83%
    23:00 -13°C° 0 mm 1 mps 600 mmHg 81%

    24 January, Thursday

    Time Temperature Precipitation Wind Pressure Humidity
    00:00 -14°C° 0 mm 1 mps 600 mmHg 79%
    01:00 -14°C° 0 mm 1 mps 600 mmHg 77%
    02:00 -14°C° 0 mm 1 mps 600 mmHg 75%
    03:00 -14°C° 0 mm 1 mps 600 mmHg 73%
    04:00 -13°C° 0 mm 1 mps 600 mmHg 71%
    05:00 -14°C° 0 mm 1 mps 600 mmHg 68%
    06:00 -14°C° 0 mm 1 mps 601 mmHg 66%
    07:00 -14°C° 0 mm 1 mps 601 mmHg 63%
    08:00 -12°C° 0 mm 1 mps 602 mmHg 64%
    09:00 -10°C° 0 mm 1 mps 603 mmHg 64%
    10:00 -8°C° 0 mm 1 mps 604 mmHg 65%
    11:00 -7°C° 0 mm 1 mps 604 mmHg 69%
    12:00 -7°C° 0 mm 2 mps 604 mmHg 72%
    13:00 -6°C° 0 mm 2 mps 604 mmHg 76%
    14:00 -7°C° 0 mm 2 mps 604 mmHg 81%
    15:00 -8°C° 0 mm 2 mps 604 mmHg 87%
    16:00 -9°C° 0 mm 2 mps 604 mmHg 92%
    17:00 -12°C° 0 mm 2 mps 603 mmHg 92%
    18:00 -14°C° 0 mm 2 mps 603 mmHg 93%
    19:00 -16°C° 0 mm 2 mps 602 mmHg 94%
    20:00 -16°C° 0 mm 2 mps 602 mmHg 93%
    21:00 -17°C° 0 mm 2 mps 602 mmHg 92%
    22:00 -18°C° 0 mm 2 mps 602 mmHg 91%
    23:00 -18°C° 0 mm 2 mps 602 mmHg 91%
    Show more